Location: Sherwood Forest
(32.9451°N, 85.9152°W)
Time: 22:35:33
(UTC+00:00)

Daily predictions for brighter satellites

Satellite Brightness Start Highest point End
(mag) Time Altitude Azimuth Time Altitude Azimuth Time Altitude Azimuth
ALOS 3.6 12:00:25 10° NNW 12:03:34 18° WNW 12:06:43 10° WSW
STARLINK 1020 4.2 12:01:28 10° WSW 12:04:41 29° NW 12:07:55 10° NNE
STARLINK 1034 4.3 12:04:29 10° W 12:07:39 27° NW 12:10:49 10° NNE
Cosmos 1726 3.8 12:05:57 10° WSW 12:07:54 14° WNW 12:09:52 10° NW
Cosmos 1328 4.2 12:04:57 10° NNW 12:08:42 41° W 12:12:24 10° SSW
STARLINK 1029 4.4 12:07:22 10° W 12:09:40 19° NW 12:12:02 10° NNE
Cosmos 2263 Rocket 2.2 12:06:42 10° NNW 12:12:20 74° WSW 12:17:59 10° SSE
Cosmos 1624 Rocket 4.5 12:07:33 10° N 12:12:44 64° ENE 12:17:51 10° SSE
STARLINK 1063 4.3 12:08:45 10° SSW 12:12:49 58° SE 12:16:53 10° NE
STARLINK 1033 4.5 12:10:35 10° W 12:13:38 24° NW 12:16:41 10° NNE
Alouette 2 Rocket 4.0 12:08:31 10° S 12:14:15 79° E 12:18:16 10° NNE
ATLAS 2AS CENTAUR R/B 3.9 12:09:17 10° WSW 12:15:54 28° NW 12:22:36 10° N
Nadezhda 3 Rocket 4.2 12:09:47 10° S 12:15:55 81° E 12:22:06 10° N
STARLINK 1064 4.1 12:13:41 10° SSW 12:17:46 66° SE 12:21:53 10° NE
COSMO-SKYMED 1 4.4 12:17:11 10° WSW 12:19:05 13° W 12:21:01 10° WNW
Meteor 2-17 Rocket 4.5 23:21:34 10° S 23:27:40 70° E 23:33:46 10° NNE
Cosmos 494 Rocket 4.2 23:22:52 10° N 23:27:46 45° ENE 23:32:38 10° SE
Cosmos 2227 Rocket 2.3 23:23:04 10° S 23:28:37 61° ESE 23:34:11 10° NNE
Cosmos 1461 3.4 23:25:38 10° NNW 23:30:03 72° WSW 23:34:35 10° SSE
SL-8 Rocket 4.5 23:24:21 10° SSE 23:30:08 39° E 23:35:55 10° NNE
Cosmos 1812 Rocket 3.6 23:27:38 10° N 23:32:05 66° E 23:36:31 10° SSE
Cosmos 2219 Rocket 2.5 23:26:59 10° NNW 23:32:39 77° WSW 23:38:16 10° SSE
YAOGAN 1 3.8 23:31:05 10° ESE 23:34:15 20° ENE 23:37:25 10° NNE
ISS -2.7 23:32:48 10° WSW 23:36:00 41° NW 23:39:12 10° NNE
Cosmos 2341 Rocket 4.1 23:29:43 10° S 23:36:01 65° E 23:42:18 10° NNE
Cosmos-2242 4.0 23:34:37 10° NNE 23:38:14 26° ENE 23:41:47 10° SE
H-2A ROCKET BODY 3.0 23:27:33 10° W 23:41:32 60° S 23:45:09 10° ESE
Cosmos 44 3.2 23:37:20 10° SSW 23:42:00 65° ESE 23:46:28 10° NE
COSMOS 2428 3.4 23:38:51 10° NNW 23:44:31 63° WSW 23:50:08 10° S
Meteor 2-1 Rocket 4.1 23:43:53 10° N 23:49:24 76° E 23:54:58 10° SSE
Meteor 2-10 Rocket 4.2 23:45:24 10° NNE 23:49:57 30° ENE 23:54:22 10° SE
YAOGAN 6 2.5 23:46:48 10° SSE 23:50:29 72° ENE 23:54:08 10° N
CZ-4 R/B 1.8 23:47:16 10° SE 23:51:00 39° ENE 23:54:49 10° N
CZ-2D R/B 4.3 23:53:33 10° SE 23:56:37 24° ENE 23:59:42 10° NNE
